Location: Unspecified
(0.0000°N, 0.0000°E)
Time: 16:47:04
(UTC+00:00)

Vanguard 2 Rocket - Pass Details

Date: 27 January 2020
Orbit: 554 x 3327 km, 32.9° (Epoch: 20 February)

Event Time Altitude Azimuth Distance (km) Brightness Sun altitude
Rises 10:03:18 0° 324° (NW) 4,343 10.0 53.2°
Reaches altitude 10° 10:06:00 10° 333° (NNW) 3,683 9.8 53.8°
Maximum altitude 10:15:29 41° 40° (NE) 2,903 10.1 55.8°
Drops below altitude 10° 10:30:47 10° 104° (ESE) 5,867 11.6 58.9°
Sets 10:36:25 0° 110° (ESE) 7,139 11.9 60.0°
